Location: Unspecified
(48.2082°N, 0.0000°E)
Time: 18:45:31
(UTC+00:00)

A-11 Canister half - Visible Passes

Search period start: 12 June 2021 00:00
Search period end: 22 June 2021 00:00
Orbit: 1514 x 1686 km, 47.2° (Epoch: 11 June)

Date Brightness Start Highest point End Pass type
(mag) Time Alt. Az. Time Alt. Az. Time Alt. Az.
15 Jun 11.1 03:02:16 10° SE 03:04:10 11° ESE 03:06:03 10° ESE visible
20 Jun 10.2 03:04:26 10° S 03:12:42 30° SE 03:20:45 10° E visible
21 Jun 10.3 02:41:47 10° S 02:49:51 28° SE 02:57:44 10° E visible
